Location: *
(58.7167°N, 26.1833°E)
Time: 17:41:14
(UTC+00:00)

Celestis-02/Orion 38 - Pass Details

Date: 25 August 2019
Orbit: 774 x 866 km, 108.0° (Epoch: 14 October)

Event Time Altitude Azimuth Distance (km) Brightness Sun altitude
Exits shadow 22:18:22 44° 171° (S) 1,062 4.7 -20.7°
Maximum altitude 22:19:53 68° 237° (WSW) 837 4.5 -20.7°
Drops below altitude 10° 22:24:58 10° 321° (NW) 2,339 7.7 -20.7°
Sets 22:27:17 0° 324° (NW) 3,275 8.6 -20.6°
